Time,TemperatureF,DewpointF,PressureIn,WindDirection,WindDirectionDegrees,WindSpeedMPH,WindSpeedGustMPH,Humidity,HourlyPrecipIn,Conditions,Clouds,dailyrainin,SoftwareType,DateUTC
2013-01-18 00:04:00,34.7,26.3,30.29,ESE,113,1.3,1.3,71,0.00,,,0.00,WUHU216HW,2013-01-18 06:04:00,
2013-01-18 00:29:00,34.6,26.4,30.29,South,180,1.3,1.3,72,0.00,,,0.00,WUHU216HW,2013-01-18 06:29:00,
2013-01-18 00:34:00,34.6,26.4,30.29,South,180,1.3,1.3,72,0.00,,,0.00,WUHU216HW,2013-01-18 06:34:00,
2013-01-18 00:59:00,34.2,26.0,30.29,North,0,0.9,0.9,72,0.00,,,0.00,WUHU216HW,2013-01-18 06:59:00,
2013-01-18 01:04:00,34.2,26.0,30.29,North,0,0.9,0.9,72,0.00,,,0.00,WUHU216HW,2013-01-18 07:04:00,
2013-01-18 01:29:00,34.4,26.6,30.29,South,180,1.8,1.8,73,0.00,,,0.00,WUHU216HW,2013-01-18 07:29:00,
2013-01-18 01:34:00,34.4,26.6,30.29,South,180,1.8,1.8,73,0.00,,,0.00,WUHU216HW,2013-01-18 07:34:00,
2013-01-18 01:59:00,34.0,26.2,30.29,ESE,113,1.3,1.3,73,0.00,,,0.00,WUHU216HW,2013-01-18 07:59:00,
2013-01-18 02:04:00,34.0,26.2,30.29,ESE,113,1.3,1.3,73,0.00,,,0.00,WUHU216HW,2013-01-18 08:04:00,
2013-01-18 02:29:00,33.7,26.2,30.28,SSE,158,2.0,2.0,74,0.00,,,0.00,WUHU216HW,2013-01-18 08:29:00,
2013-01-18 02:34:00,33.7,26.2,30.28,SSE,158,2.0,2.0,74,0.00,,,0.00,WUHU216HW,2013-01-18 08:34:00,
2013-01-18 02:59:00,33.5,26.3,30.28,South,180,1.8,1.8,75,0.00,,,0.00,WUHU216HW,2013-01-18 08:59:00,
2013-01-18 03:04:00,33.5,26.3,30.28,South,180,1.8,1.8,75,0.00,,,0.00,WUHU216HW,2013-01-18 09:04:00,
2013-01-18 03:29:00,33.5,26.6,30.27,South,180,0.9,0.9,76,0.00,,,0.00,WUHU216HW,2013-01-18 09:29:00,
2013-01-18 03:34:00,33.5,26.6,30.27,South,180,0.9,0.9,76,0.00,,,0.00,WUHU216HW,2013-01-18 09:34:00,
2013-01-18 03:59:00,33.3,26.5,30.26,SE,135,1.6,1.6,76,0.00,,,0.00,WUHU216HW,2013-01-18 09:59:00,
2013-01-18 04:04:00,33.3,26.5,30.26,SE,135,1.6,1.6,76,0.00,,,0.00,WUHU216HW,2013-01-18 10:04:00,
2013-01-18 04:29:00,33.1,26.3,30.25,SSW,203,1.6,1.6,76,0.00,,,0.00,WUHU216HW,2013-01-18 10:29:00,
2013-01-18 04:34:00,33.1,26.3,30.25,SSW,203,1.6,1.6,76,0.00,,,0.00,WUHU216HW,2013-01-18 10:34:00,
2013-01-18 04:59:00,32.9,26.5,30.24,ESE,113,1.8,1.8,77,0.00,,,0.00,WUHU216HW,2013-01-18 10:59:00,
2013-01-18 05:04:00,32.9,26.5,30.24,ESE,113,1.8,1.8,77,0.00,,,0.00,WUHU216HW,2013-01-18 11:04:00,
2013-01-18 05:29:00,32.9,26.8,30.23,SSW,203,3.1,3.1,78,0.00,,,0.00,WUHU216HW,2013-01-18 11:29:00,
2013-01-18 05:34:00,32.9,26.8,30.23,SSW,203,3.1,3.1,78,0.00,,,0.00,WUHU216HW,2013-01-18 11:34:00,
2013-01-18 05:59:00,32.8,26.6,30.22,SE,135,2.0,2.0,78,0.00,,,0.00,WUHU216HW,2013-01-18 11:59:00,
2013-01-18 06:04:00,32.8,26.6,30.22,SE,135,2.0,2.0,78,0.00,,,0.00,WUHU216HW,2013-01-18 12:04:00,
2013-01-18 06:29:00,33.1,26.6,30.22,SE,135,1.1,1.1,77,0.00,,,0.00,WUHU216HW,2013-01-18 12:29:00,
2013-01-18 06:34:00,33.1,26.6,30.22,SE,135,1.1,1.1,77,0.00,,,0.00,WUHU216HW,2013-01-18 12:34:00,
2013-01-18 06:59:00,32.9,26.5,30.22,South,180,1.6,1.6,77,0.00,,,0.00,WUHU216HW,2013-01-18 12:59:00,
2013-01-18 07:04:00,32.9,26.5,30.22,South,180,1.6,1.6,77,0.00,,,0.00,WUHU216HW,2013-01-18 13:04:00,
2013-01-18 07:29:00,32.6,26.2,30.21,SSE,158,1.1,1.1,77,0.00,,,0.00,WUHU216HW,2013-01-18 13:29:00,
2013-01-18 07:34:00,32.6,26.2,30.21,SSE,158,1.1,1.1,77,0.00,,,0.00,WUHU216HW,2013-01-18 13:34:00,
2013-01-18 07:59:00,32.8,26.6,30.20,NW,315,2.5,2.5,78,0.00,,,0.00,WUHU216HW,2013-01-18 13:59:00,
2013-01-18 08:04:00,32.8,26.6,30.20,NW,315,2.5,2.5,78,0.00,,,0.00,WUHU216HW,2013-01-18 14:04:00,
2013-01-18 08:29:00,34.0,27.2,30.20,South,180,3.6,3.6,76,0.00,,,0.00,WUHU216HW,2013-01-18 14:29:00,
2013-01-18 08:34:00,34.0,27.2,30.20,South,180,3.6,3.6,76,0.00,,,0.00,WUHU216HW,2013-01-18 14:34:00,
2013-01-18 08:59:00,36.5,29.0,30.19,SSE,158,3.8,3.8,74,0.00,,,0.00,WUHU216HW,2013-01-18 14:59:00,
2013-01-18 09:04:00,36.5,29.0,30.19,SSE,158,3.8,3.8,74,0.00,,,0.00,WUHU216HW,2013-01-18 15:04:00,
2013-01-18 09:29:00,39.2,30.2,30.19,SSE,158,3.8,3.8,70,0.00,,,0.00,WUHU216HW,2013-01-18 15:29:00,
2013-01-18 09:34:00,39.2,30.2,30.19,SSE,158,3.8,3.8,70,0.00,,,0.00,WUHU216HW,2013-01-18 15:34:00,
2013-01-18 09:59:00,42.3,31.8,30.18,WSW,248,4.0,4.0,66,0.00,,,0.00,WUHU216HW,2013-01-18 15:59:00,
2013-01-18 10:04:00,42.3,31.8,30.18,WSW,248,4.0,4.0,66,0.00,,,0.00,WUHU216HW,2013-01-18 16:04:00,
2013-01-18 10:29:00,45.5,32.9,30.17,South,180,3.6,3.6,61,0.00,,,0.00,WUHU216HW,2013-01-18 16:29:00,
2013-01-18 10:34:00,45.5,32.9,30.17,South,180,3.6,3.6,61,0.00,,,0.00,WUHU216HW,2013-01-18 16:34:00,
2013-01-18 10:59:00,47.9,33.4,30.14,East,90,4.5,4.5,57,0.00,,,0.00,WUHU216HW,2013-01-18 16:59:00,
2013-01-18 11:04:00,47.9,33.4,30.14,East,90,4.5,4.5,57,0.00,,,0.00,WUHU216HW,2013-01-18 17:04:00,
2013-01-18 11:29:00,49.5,33.9,30.12,SSW,203,3.6,3.6,55,0.00,,,0.00,WUHU216HW,2013-01-18 17:29:00,
2013-01-18 11:34:00,49.5,33.9,30.12,SSW,203,3.6,3.6,55,0.00,,,0.00,WUHU216HW,2013-01-18 17:34:00,
2013-01-18 11:59:00,51.3,33.9,30.09,West,270,1.8,1.8,51,0.00,,,0.00,WUHU216HW,2013-01-18 17:59:00,
2013-01-18 12:04:00,51.3,33.9,30.09,West,270,1.8,1.8,51,0.00,,,0.00,WUHU216HW,2013-01-18 18:04:00,
2013-01-18 12:29:00,52.9,33.1,30.06,SSW,203,4.7,4.7,47,0.00,,,0.00,WUHU216HW,2013-01-18 18:29:00,
2013-01-18 12:34:00,52.9,33.1,30.06,SSW,203,4.7,4.7,47,0.00,,,0.00,WUHU216HW,2013-01-18 18:34:00,
2013-01-18 12:59:00,54.4,33.8,30.05,SW,225,4.7,4.7,46,0.00,,,0.00,WUHU216HW,2013-01-18 18:59:00,
2013-01-18 13:04:00,54.4,33.8,30.05,SW,225,4.7,4.7,46,0.00,,,0.00,WUHU216HW,2013-01-18 19:04:00,
2013-01-18 13:29:00,55.6,34.5,30.03,West,270,5.6,5.6,45,0.00,,,0.00,WUHU216HW,2013-01-18 19:29:00,
2013-01-18 13:34:00,55.6,34.5,30.03,West,270,5.6,5.6,45,0.00,,,0.00,WUHU216HW,2013-01-18 19:34:00,
2013-01-18 13:59:00,58.1,34.5,30.02,WSW,248,5.4,5.4,41,0.00,,,0.00,WUHU216HW,2013-01-18 19:59:00,
2013-01-18 14:04:00,58.1,34.5,30.02,WSW,248,5.4,5.4,41,0.00,,,0.00,WUHU216HW,2013-01-18 20:04:00,
2013-01-18 14:29:00,59.6,34.6,30.01,West,270,3.6,3.6,39,0.00,,,0.00,WUHU216HW,2013-01-18 20:29:00,
2013-01-18 14:34:00,59.6,34.6,30.01,West,270,3.6,3.6,39,0.00,,,0.00,WUHU216HW,2013-01-18 20:34:00,
2013-01-18 14:59:00,60.8,34.9,29.99,South,180,3.4,3.4,38,0.00,,,0.00,WUHU216HW,2013-01-18 20:59:00,
2013-01-18 15:04:00,60.8,34.9,29.99,South,180,3.4,3.4,38,0.00,,,0.00,WUHU216HW,2013-01-18 21:04:00,
2013-01-18 15:29:00,60.8,34.9,29.98,SSE,158,2.0,2.0,38,0.00,,,0.00,WUHU216HW,2013-01-18 21:29:00,
2013-01-18 15:34:00,60.8,34.9,29.98,SSE,158,2.0,2.0,38,0.00,,,0.00,WUHU216HW,2013-01-18 21:34:00,
2013-01-18 15:59:00,59.9,33.4,29.96,SSW,203,3.4,3.4,37,0.00,,,0.00,WUHU216HW,2013-01-18 21:59:00,
2013-01-18 16:04:00,59.9,33.4,29.96,SSW,203,3.4,3.4,37,0.00,,,0.00,WUHU216HW,2013-01-18 22:04:00,
2013-01-18 16:29:00,56.9,32.1,29.96,SSE,158,4.0,4.0,39,0.00,,,0.00,WUHU216HW,2013-01-18 22:29:00,
2013-01-18 16:34:00,56.9,32.1,29.96,SSE,158,4.0,4.0,39,0.00,,,0.00,WUHU216HW,2013-01-18 22:34:00,
2013-01-18 16:59:00,55.3,31.9,29.97,WSW,248,2.9,2.9,41,0.00,,,0.00,WUHU216HW,2013-01-18 22:59:00,
2013-01-18 17:04:00,55.3,31.9,29.97,WSW,248,2.9,2.9,41,0.00,,,0.00,WUHU216HW,2013-01-18 23:04:00,
2013-01-18 17:29:00,53.3,31.8,29.99,West,270,2.5,2.5,44,0.00,,,0.00,WUHU216HW,2013-01-18 23:29:00,
2013-01-18 17:34:00,53.3,31.8,29.99,West,270,2.5,2.5,44,0.00,,,0.00,WUHU216HW,2013-01-18 23:34:00,
2013-01-18 17:59:00,52.0,31.2,29.98,South,180,3.8,3.8,45,0.00,,,0.00,WUHU216HW,2013-01-18 23:59:00,
2013-01-18 18:04:00,52.0,31.2,29.98,South,180,3.8,3.8,45,0.00,,,0.00,WUHU216HW,2013-01-19 00:04:00,
2013-01-18 18:29:00,50.9,31.3,29.98,WSW,248,2.7,2.7,47,0.00,,,0.00,WUHU216HW,2013-01-19 00:29:00,
2013-01-18 18:34:00,50.9,31.3,29.98,WSW,248,2.7,2.7,47,0.00,,,0.00,WUHU216HW,2013-01-19 00:34:00,
2013-01-18 18:59:00,49.3,31.0,29.98,SSW,203,2.5,2.5,49,0.00,,,0.00,WUHU216HW,2013-01-19 00:59:00,
2013-01-18 19:04:00,49.3,31.0,29.98,SSW,203,2.5,2.5,49,0.00,,,0.00,WUHU216HW,2013-01-19 01:04:00,
2013-01-18 19:29:00,48.1,31.2,29.98,SSE,158,3.8,3.8,52,0.00,,,0.00,WUHU216HW,2013-01-19 01:29:00,
2013-01-18 19:34:00,48.1,31.2,29.98,SSE,158,3.8,3.8,52,0.00,,,0.00,WUHU216HW,2013-01-19 01:34:00,
2013-01-18 19:59:00,47.2,31.8,29.98,SSE,158,2.5,2.5,55,0.00,,,0.00,WUHU216HW,2013-01-19 01:59:00,
2013-01-18 20:04:00,47.2,31.8,29.98,SSE,158,2.5,2.5,55,0.00,,,0.00,WUHU216HW,2013-01-19 02:04:00,
2013-01-18 20:29:00,46.4,31.5,29.98,SE,135,2.5,2.5,56,0.00,,,0.00,WUHU216HW,2013-01-19 02:29:00,
2013-01-18 20:34:00,46.4,31.5,29.98,SE,135,2.5,2.5,56,0.00,,,0.00,WUHU216HW,2013-01-19 02:34:00,
2013-01-18 20:59:00,46.3,31.3,29.97,SW,225,3.6,3.6,56,0.00,,,0.00,WUHU216HW,2013-01-19 02:59:00,
2013-01-18 21:04:00,46.3,31.3,29.97,SW,225,3.6,3.6,56,0.00,,,0.00,WUHU216HW,2013-01-19 03:04:00,
2013-01-18 21:29:00,46.1,31.1,29.97,SSE,158,2.0,2.0,56,0.00,,,0.00,WUHU216HW,2013-01-19 03:29:00,
2013-01-18 21:34:00,46.1,31.1,29.97,SSE,158,2.0,2.0,56,0.00,,,0.00,WUHU216HW,2013-01-19 03:34:00,
2013-01-18 21:59:00,45.5,31.1,29.97,SW,225,2.0,2.0,57,0.00,,,0.00,WUHU216HW,2013-01-19 03:59:00,
2013-01-18 22:04:00,45.5,31.1,29.97,SW,225,2.0,2.0,57,0.00,,,0.00,WUHU216HW,2013-01-19 04:04:00,
2013-01-18 22:29:00,45.4,31.0,29.96,SSW,203,3.4,3.4,57,0.00,,,0.00,WUHU216HW,2013-01-19 04:29:00,
2013-01-18 22:34:00,45.4,31.0,29.96,SSW,203,3.4,3.4,57,0.00,,,0.00,WUHU216HW,2013-01-19 04:34:00,
2013-01-18 22:59:00,45.4,31.0,29.95,SW,225,2.9,2.9,57,0.00,,,0.00,WUHU216HW,2013-01-19 04:59:00,
2013-01-18 23:01:00,45.4,31.0,29.95,SW,225,2.9,2.9,57,0.00,,,0.00,WUHU216HW,2013-01-19 05:01:00,
2013-01-18 23:03:00,45.4,31.0,29.95,SW,225,2.9,2.9,57,0.00,,,0.00,WUHU216HW,2013-01-19 05:03:00,
2013-01-18 23:04:00,45.4,31.0,29.95,SW,225,2.9,2.9,57,0.00,,,0.00,WUHU216HW,2013-01-19 05:04:00,
2013-01-18 23:09:00,45.4,31.0,29.95,SW,225,2.9,2.9,57,0.00,,,0.00,WUHU216HW,2013-01-19 05:09:00,
2013-01-18 23:29:00,45.4,31.0,29.94,South,180,3.1,3.1,57,0.00,,,0.00,WUHU216HW,2013-01-19 05:29:00,
2013-01-18 23:34:00,45.4,31.0,29.94,South,180,3.1,3.1,57,0.00,,,0.00,WUHU216HW,2013-01-19 05:34:00,
2013-01-18 23:59:00,45.2,31.2,29.93,WSW,248,4.0,4.0,58,0.00,,,0.00,WUHU216HW,2013-01-19 05:59:00,